TimeCST,TemperatureF,Dew PointF,Humidity,Sea Level PressureIn,VisibilityMPH,Wind Direction,Wind SpeedMPH,Gust SpeedMPH,PrecipitationIn,Events,Conditions,WindDirDegrees,DateUTC
12:53 AM,24.1,16.0,71,30.27,10.0,East,8.1,-,N/A,,Overcast,90,2014-02-04 06:53:00
1:53 AM,24.1,16.0,71,30.27,10.0,East,8.1,-,N/A,,Scattered Clouds,80,2014-02-04 07:53:00
2:53 AM,24.1,16.0,71,30.27,10.0,East,8.1,-,N/A,,Overcast,80,2014-02-04 08:53:00
3:53 AM,24.1,16.0,71,30.26,10.0,East,8.1,-,N/A,,Overcast,80,2014-02-04 09:53:00
4:53 AM,24.1,17.1,75,30.24,10.0,ENE,6.9,-,N/A,,Overcast,70,2014-02-04 10:53:00
5:37 AM,24.8,17.6,74,30.27,2.5,ENE,4.6,-,0.00,Snow,Light Snow,70,2014-02-04 11:37:00
5:46 AM,23.0,17.6,80,30.28,1.0,ENE,3.5,-,0.00,Snow,Light Snow,70,2014-02-04 11:46:00
5:53 AM,23.0,19.0,85,30.27,0.8,Calm,Calm,-,0.00,Snow,Light Snow,0,2014-02-04 11:53:00
6:21 AM,23.0,19.4,86,30.27,1.0,NNE,4.6,-,0.00,Snow,Light Snow,30,2014-02-04 12:21:00
6:51 AM,23.0,19.4,86,30.31,0.8,ENE,3.5,-,0.00,Snow,Light Snow,70,2014-02-04 12:51:00
6:53 AM,23.0,19.9,88,30.30,0.8,NE,4.6,-,0.00,Snow,Light Snow,50,2014-02-04 12:53:00
7:25 AM,23.0,19.4,86,30.28,0.5,ENE,8.1,-,0.00,Fog-Snow,Snow,60,2014-02-04 13:25:00
7:44 AM,23.0,19.4,86,30.25,1.0,Variable,4.6,-,0.00,Snow,Light Snow,0,2014-02-04 13:44:00
7:53 AM,23.0,19.9,88,30.25,1.8,ENE,8.1,-,0.00,Snow,Light Snow,70,2014-02-04 13:53:00
8:01 AM,23.0,19.4,86,30.25,2.5,ENE,9.2,-,0.00,Snow,Light Snow,70,2014-02-04 14:01:00
8:08 AM,23.0,19.4,86,30.25,3.0,East,8.1,-,0.00,Snow,Light Snow,80,2014-02-04 14:08:00
8:53 AM,23.0,19.0,85,30.23,6.0,East,9.2,-,0.00,,Overcast,80,2014-02-04 14:53:00
9:53 AM,23.0,18.0,81,30.23,7.0,East,11.5,-,0.00,Snow,Light Snow,80,2014-02-04 15:53:00
10:53 AM,24.1,18.0,77,30.16,6.0,ENE,11.5,19.6,0.00,Snow,Light Snow,70,2014-02-04 16:53:00
11:08 AM,24.8,19.4,80,30.17,2.5,ENE,13.8,-,0.00,Snow,Light Snow,70,2014-02-04 17:08:00
11:15 AM,24.8,19.4,80,30.17,6.0,ENE,13.8,19.6,0.00,Snow,Light Snow,70,2014-02-04 17:15:00
11:53 AM,25.0,19.0,78,30.17,10.0,ENE,12.7,-,0.00,,Overcast,70,2014-02-04 17:53:00
12:20 PM,24.8,19.4,80,30.14,1.8,East,12.7,-,0.00,Snow,Light Snow,80,2014-02-04 18:20:00
12:41 PM,24.8,19.4,80,30.10,0.5,ENE,10.4,21.9,0.00,Snow,Snow,60,2014-02-04 18:41:00
12:49 PM,24.8,21.2,86,30.10,0.5,NE,11.5,-,0.00,Fog-Snow,Snow,50,2014-02-04 18:49:00
12:53 PM,25.0,21.0,85,30.08,0.5,ENE,12.7,18.4,0.00,Fog-Snow,Snow,70,2014-02-04 18:53:00
1:53 PM,26.1,21.0,81,30.04,0.5,ENE,10.4,18.4,0.00,Snow,Snow,60,2014-02-04 19:53:00
2:02 PM,26.6,21.2,80,30.05,0.8,ENE,9.2,20.7,0.00,Snow,Light Snow,70,2014-02-04 20:02:00
2:42 PM,24.8,21.2,86,30.04,0.5,East,12.7,23.0,0.00,Fog-Snow,Snow,80,2014-02-04 20:42:00
2:53 PM,25.0,21.0,85,30.01,0.8,ENE,16.1,-,0.00,Snow,Snow,70,2014-02-04 20:53:00
3:06 PM,24.8,21.2,86,30.02,1.0,ENE,12.7,-,0.00,Snow,Snow,70,2014-02-04 21:06:00
3:34 PM,24.8,19.4,80,29.99,1.5,ENE,15.0,-,0.00,Snow,Snow,70,2014-02-04 21:34:00
3:53 PM,25.0,19.9,81,29.98,1.8,East,13.8,21.9,0.00,Snow,Snow,80,2014-02-04 21:53:00
4:00 PM,24.8,19.4,80,30.04,1.8,Variable,5.8,-,0.00,Snow,Snow,0,2014-02-04 22:00:00
4:32 PM,24.8,21.2,86,30.02,0.8,ENE,8.1,-,0.00,,Mist,70,2014-02-04 22:32:00
4:53 PM,25.0,21.0,85,30.00,0.5,Variable,4.6,-,0.00,Fog,Light Freezing Fog,0,2014-02-04 22:53:00
5:21 PM,24.8,21.2,86,30.00,0.8,NNE,5.8,-,N/A,,Mist,20,2014-02-04 23:21:00
5:28 PM,24.8,21.2,86,30.00,1.5,NNE,5.8,-,N/A,,Overcast,20,2014-02-04 23:28:00
5:53 PM,24.1,19.9,84,29.98,1.0,Variable,4.6,-,N/A,,Mist,0,2014-02-04 23:53:00
6:23 PM,24.8,19.4,80,29.97,1.5,Variable,5.8,-,N/A,,Overcast,0,2014-02-05 00:23:00
6:53 PM,24.1,19.0,81,29.99,1.2,NNE,4.6,-,N/A,,Haze,20,2014-02-05 00:53:00
7:53 PM,21.9,18.0,85,30.01,1.2,Variable,4.6,-,0.00,Snow,Light Snow,0,2014-02-05 01:53:00
8:53 PM,21.9,17.1,82,30.02,1.8,North,3.5,-,0.00,Snow,Light Snow,360,2014-02-05 02:53:00
9:01 PM,21.2,17.6,86,30.03,3.0,North,5.8,-,0.00,Snow,Light Snow,350,2014-02-05 03:01:00
9:53 PM,21.0,16.0,81,30.04,3.0,North,6.9,-,0.00,,Overcast,350,2014-02-05 03:53:00
10:09 PM,21.2,17.6,86,30.04,2.5,North,8.1,-,N/A,,Overcast,360,2014-02-05 04:09:00
10:23 PM,21.2,17.6,86,30.04,1.5,North,9.2,-,N/A,,Overcast,360,2014-02-05 04:23:00
10:41 PM,21.2,17.6,86,30.03,2.0,North,8.1,-,N/A,,Overcast,350,2014-02-05 04:41:00
10:51 PM,21.2,15.8,80,30.03,4.0,North,12.7,-,N/A,,Overcast,360,2014-02-05 04:51:00
10:53 PM,21.0,16.0,81,30.03,5.0,North,11.5,-,N/A,,Overcast,360,2014-02-05 04:53:00
11:29 PM,19.4,14.0,80,30.03,2.5,North,11.5,-,N/A,,Overcast,350,2014-02-05 05:29:00
11:38 PM,19.4,14.0,80,30.03,1.8,North,9.2,17.3,N/A,,Overcast,360,2014-02-05 05:38:00
11:51 PM,19.4,14.0,80,30.04,3.0,North,8.1,-,N/A,,Overcast,360,2014-02-05 05:51:00
11:52 PM,19.9,14.0,78,30.03,3.0,North,6.9,-,N/A,,Overcast,350,2014-02-05 05:52:00